This demonstration page uses our WeatherBlox Daily Observations layout. Learn more.

Left ArrowRight Arrow

40.92945, -100.16068

Hourly Observations for November 21, 2018

Temp ( °F °C ) Dew Point ( °F °C ) Humidity (%) Winds ( mph kmh ) Pressure ( in mb ) Visibility ( mi km ) Precip ( " mm )
12:15 am 00:15 Clear 28 -2.3 23 -4.8 83 83 WNW 7 11 30.27 1025 10 16.0934 0 0
12:35 am 00:35 Clear 28 -2.4 23 -4.9 83 83 W 7 11 30.27 1025 10 16.0934 0 0
12:55 am 00:55 Clear 27 -2.6 23 -5.1 83 83 W 7 11 30.27 1025 10 16.0934 0 0
1:15 am 01:15 Clear 26 -3.1 22 -5.5 84 84 WNW 5 7 30.27 1025 10 16.0934 0 0
1:35 am 01:35 Clear 26 -3.1 22 -5.5 84 84 WNW 7 11 30.27 1025 10 16.0934 0 0
1:55 am 01:55 Clear 26 -3.4 22 -5.6 85 85 WNW 3 6 30.27 1025 10 16.0934 0 0
2:15 am 02:15 Clear 27 -2.8 23 -5.2 84 84 WNW 7 11 30.27 1025 10 16.0934 0 0
2:35 am 02:35 Clear 28 -2.5 23 -5.1 83 83 WNW 5 7 30.27 1025 10 16.0934 0 0
2:55 am 02:55 Clear 26 -3.1 23 -5.2 86 86 WNW 8 13 30.27 1025 10 16.0934 0 0
3:15 am 03:15 Clear 26 -3.2 22 -5.5 84 84 WNW 8 13 30.27 1025 10 16.0934 0 0
3:35 am 03:35 Clear 27 -3 23 -5.1 86 86 WNW 5 7 30.27 1025 10 16.0934 0 0
3:55 am 03:55 Clear 27 -3 22 -5.3 84 84 WNW 6 9 30.24 1024 10 16.0934 0 0
4:15 am 04:15 Clear 26 -3.1 22 -5.3 85 85 WNW 7 11 30.24 1024 10 16.0934 0 0
4:35 am 04:35 Clear 26 -3.2 22 -5.3 86 86 WNW 6 9 30.27 1025 10 16.0934 0 0
4:55 am 04:55 Clear 26 -3.2 22 -5.4 85 85 W 3 6 30.27 1025 10 16.0934 0 0
5:15 am 05:15 Clear 25 -4 21 -6.1 86 86 W 6 9 30.27 1025 10 16.0934 0 0
5:35 am 05:35 Clear 24 -4.6 20 -6.5 87 87 NW 6 9 30.27 1025 10 16.0934 0 0
5:55 am 05:55 Clear 24 -4.3 21 -6.2 87 87 W 5 7 30.24 1024 10 16.0934 0 0
6:15 am 06:15 Clear 24 -4.3 21 -6.1 87 87 W 6 9 30.24 1024 10 16.0934 0 0
6:35 am 06:35 Clear 24 -4.4 21 -6.2 87 87 W 6 9 30.3 1026 10 16.0934 0 0
6:55 am 06:55 Clear 23 -5 20 -6.6 89 89 WNW 6 9 30.3 1026 10 16.0934 0 0
7:15 am 07:15 Clear 24 -4.5 21 -6.2 88 88 WNW 6 9 30.3 1026 10 16.0934 0 0
7:35 am 07:35 Sunny 24 -4.6 20 -6.5 87 87 WSW 3 6 30.3 1026 10 16.0934 0 0
7:55 am 07:55 Sunny 24 -4.3 21 -6.1 87 87 W 5 7 30.3 1026 10 16.0934 0 0
8:15 am 08:15 Sunny 26 -3.6 22 -5.4 88 88 WSW 3 6 30.27 1025 10 16.0934 0 0
8:35 am 08:35 Sunny 29 -1.8 25 -4 85 85 Calm 30.27 1025 10 16.0934 0 0
8:55 am 08:55 Sunny 31 -0.4 26 -3.2 82 82 Calm 30.27 1025 10 16.0934 0 0
9:15 am 09:15 Sunny 33 0.4 27 -2.9 79 79 WNW 5 7 30.27 1025 10 16.0934 0 0
9:35 am 09:35 Sunny 34 1.3 28 -2.3 77 77 WNW 5 7 30.27 1025 10 16.0934 0 0
9:55 am 09:55 Sunny 37 2.6 29 -1.7 74 74 WNW 5 7 30.24 1024 10 16.0934 0 0
10:15 am 10:15 Sunny 39 4.1 31 -0.8 71 71 WNW 5 7 30.21 1023 10 16.0934 0 0
10:35 am 10:35 Sunny 42 5.6 31 -0.6 65 65 WNW 3 6 30.21 1023 10 16.0934 0 0
10:55 am 10:55 Sunny 45 7.1 31 -0.3 60 60 Calm 30.18 1022 10 16.0934 0 0
11:15 am 11:15 Sunny 48 9.1 32 0 53 53 Calm 30.15 1021 10 16.0934 0 0
11:35 am 11:35 Sunny 52 11.1 32 0 47 47 SSW 3 6 30.15 1021 10 16.0934 0 0
11:55 am 11:55 Sunny 55 12.9 32 0.2 42 42 SSW 6 9 30.12 1020 10 16.0934 0 0
12:15 pm 12:15 Sunny 59 15.2 31 -0.4 35 35 SW 9 15 30.06 1018 10 16.0934 0 0
12:35 pm 12:35 Sunny 62 16.6 28 -2.5 27 27 SW 13 20 30.06 1018 10 16.0934 0 0
12:55 pm 12:55 Sunny 62 16.9 27 -2.6 26 26 SW 10 17 30.06 1018 10 16.0934 0 0
1:15 pm 13:15 Sunny 62 16.9 27 -2.9 26 26 SW 12 19 30.06 1018 10 16.0934 0 0
1:35 pm 13:35 Sunny 63 17.3 26 -3.2 25 25 SW 10 17 30.06 1018 10 16.0934 0 0
1:55 pm 13:55 Sunny 64 17.6 26 -3.3 24 24 SW 9 15 30.03 1017 10 16.0934 0 0
2:15 pm 14:15 Sunny 64 17.6 26 -3.2 24 24 SW 10 17 30.03 1017 10 16.0934 0 0
2:35 pm 14:35 Sunny 63 17.3 27 -2.7 26 26 SW 13 20 30 1016 10 16.0934 0 0
2:55 pm 14:55 Sunny 63 17.3 27 -2.6 26 26 SSW 12 19 30 1016 10 16.0934 0 0
3:15 pm 15:15 Sunny 63 17.4 27 -2.8 25 25 SW 12 19 30 1016 10 16.0934 0 0
3:35 pm 15:35 Sunny 63 17.2 27 -2.9 25 25 SW 12 19 30 1016 10 16.0934 0 0
3:55 pm 15:55 Sunny 63 17 27 -2.7 26 26 SSW 9 15 30.03 1017 10 16.0934 0 0
4:15 pm 16:15 Sunny 62 16.4 27 -2.6 27 27 SSW 8 13 30.03 1017 10 16.0934 0 0
4:35 pm 16:35 Sunny 60 15.4 27 -2.6 29 29 SSW 10 17 30.03 1017 10 16.0934 0 0
4:55 pm 16:55 Sunny 57 13.9 27 -2.6 32 32 SSW 5 7 30.03 1017 10 16.0934 0 0
5:15 pm 17:15 Sunny 54 12.3 27 -3 35 35 S 5 7 30.06 1018 10 16.0934 0 0
5:35 pm 17:35 Clear 51 10.7 27 -2.7 39 39 S 5 7 30.06 1018 10 16.0934 0 0
5:55 pm 17:55 Clear 51 10.7 28 -2.3 40 40 S 5 7 30.06 1018 10 16.0934 0 0
6:15 pm 18:15 Clear 49 9.7 28 -2.4 43 43 S 5 7 30.09 1019 10 16.0934 0 0
6:35 pm 18:35 Clear 46 7.8 28 -2.5 48 48 S 3 6 30.09 1019 10 16.0934 0 0
6:55 pm 18:55 Clear 46 7.5 28 -2.5 49 49 Calm 30.09 1019 10 16.0934 0 0
7:15 pm 19:15 Clear 38 3.1 26 -3.2 64 64 S 3 6 30.15 1021 10 16.0934 0 0
7:35 pm 19:35 Clear 41 4.8 26 -3.1 57 57 S 5 7 30.12 1020 10 16.0934 0 0
7:55 pm 19:55 Clear 42 5.6 26 -3.5 52 52 S 5 7 30.12 1020 10 16.0934 0 0
8:15 pm 20:15 Clear 42 5.6 27 -3 54 54 S 6 9 30.12 1020 10 16.0934 0 0
8:35 pm 20:35 Clear 42 5.6 26 -3.2 54 54 S 5 7 30.12 1020 10 16.0934 0 0
8:55 pm 20:55 Clear 46 7.5 26 -3.1 47 47 S 6 9 30.09 1019 10 16.0934 0 0
9:15 pm 21:15 Clear 45 7 26 -3.1 49 49 S 6 9 30.12 1020 10 16.0934 0 0
9:35 pm 21:35 Clear 46 7.6 26 -3.3 46 46 S 5 7 30.09 1019 10 16.0934 0 0
9:55 pm 21:55 Clear 38 3.6 24 -4.3 57 57 Calm 30.15 1021 10 16.0934 0 0
10:15 pm 22:15 Clear 41 4.8 25 -4 53 53 SSW 5 7 30.12 1020 10 16.0934 0 0
10:35 pm 22:35 Clear 37 2.7 25 -4.1 61 61 SSW 6 9 30.15 1021 10 16.0934 0 0
10:55 pm 22:55 Clear 36 2.1 23 -4.8 61 61 SSW 5 7 30.15 1021 10 16.0934 0 0
11:15 pm 23:15 Clear 30 -1.2 23 -5 76 76 Calm 30.18 1022 10 16.0934 0 0
11:35 pm 23:35 Clear 33 0.4 24 -4.7 69 69 Calm 30.18 1022 10 16.0934 0 0
11:55 pm 23:55 Clear 31 -0.3 23 -4.8 72 72 Calm 30.18 1022 10 16.0934 0 0

Powered by AerisWeather